LTBA

Istanbul/Atatürk Airport

Airport
ICAO code
LTBA
IATA Code
IST
Summary
ICAO Region
EUR
ICAO Territory
Location

Yeşilköy, Istanbul

Serving
Istanbul
Elevation
163 ft
Coordinates
40° 58' 29" N , 28° 48' 35" E
KCC
Metar
Observation
LTBA 271620Z 04011KT CAVOK 10/06 Q1023
Station
Istanbul / Ataturk
Date/Time
2022-11-27 16:20:00
Wind direction
40°
Wind speed
11 kts
Lowest cloud amount
clouds and visibility OK
Temperature
10°C
Dew point
6°C
Humidity
76%
QNH
1023 hPa
Weather condition
n/a

Airport serving city of Istanbul. Until April 2019, it was the main international airport serving Istanbul.

Climatology

Dry-summer subtropical ”Mediterranean" climate (Köppen climate classification Csa)

Runways

Designator Length Width Surface Rops
5/23 2600 60 ASP Yes/Yes
17L/35R 3000 45 CON Yes/Yes
17R/35L 3000 45 CON Yes/Yes

Airport map

Aerial View

SKYbrary Partners:

Safety knowledge contributed by: